Location: Bouchavesnes-Bergen
(49.9859°N, 2.9203°E)
Time: 05:04:27
(UTC+00:00)

CZ-2C R/B - Pass Details

Date: 09 March 2021
Orbit: 784 x 871 km, 98.2° (Epoch: 11 April)

Event Time Altitude Azimuth Distance (km) Brightness Sun altitude
Rises 05:34:42 0° 157° (SSE) 3,447 6.2 -7.3°
Reaches altitude 10° 05:37:04 10° 155° (SSE) 2,515 5.5 -6.9°
Maximum altitude 05:42:40 73° 72° (ENE) 912 3.1 -6.0°
Drops below altitude 10° 05:48:15 10° 349° (N) 2,515 5.1 -5.1°
Sets 05:50:38 0° 348° (NNW) 3,448 5.7 -4.7°
